Training

Spin Video     https://www.youtube.com/watch?v=Vj8vdWBMePM&list=UULpWoZCi_X3hPwW6J_RsFEg     … [Read More...]

Weather

METAR FOR KCHA (Issued: Fri, October 24th 2014 2:53 PM UTC):
KCHA 241453Z 02008KT 10SM SCT140 SCT180 SCT250 14/08 A3013 RMK AO2 SLP202 T01440078 50013

Accomplishments

Marvin Mueller

Congratulations to Marvin Mueller our newest private pilot. Marvin passed his check ride on Friday March 8th. … [Read More...]

Congrats to Randy Sexton

Congratulations to Randy Sexton on becoming our newest Private Pilot at Hixson Aviation. Randy completed his checkride on Monday, March 4, 2013. … [Read More...]

Dallas Bay Skypark - 1A0